Wetbulb
72.44 71.87 71.58 70.29 68.67 67.71 66.06 65.40 64.73 63.50 62.16 60.36 58.59 59.22 59.34 59.36 59.99 60.33 60.04 59.82 59.55 59.40 59.26 58.52 57.87 58.25 57.13 57.34 56.75 56.80 55.97 55.54 52.17 54.21 56.06 57.09 56.61 55.15 54.46 54.82 54.65 55.15 55.41
71.21 69.07 68.09 67.35 66.63 65.23 64.13 63.39 62.73 61.57 61.02 60.20 59.63 59.10 58.92 59.25 60.01 59.28 58.59 58.68 57.91 57.50 57.60 57.30 56.79 56.65 56.43 56.85 55.43 56.82 56.17 56.34 53.02 51.54 54.42 53.54 53.27 52.97 52.52 51.18 52.77 53.15 53.76
67.04 65.90 65.47 65.40 64.61 63.84 62.94 62.38 61.79 60.72 60.47 59.45 59.16 58.53 58.50 58.63 58.64 58.77 58.30 57.85 57.80 57.58 57.19 56.84 55.96 55.17 54.48 53.82 53.89 53.99 54.40 53.92 53.96 51.85 51.14 52.06 50.94 50.24 48.50 49.63 50.18 50.82 51.68
63.79 62.56 63.20 62.86 62.19 61.62 61.20 60.67 60.12 59.32 58.40 58.74 58.76 58.44 57.97 57.85 58.09 58.43 58.53 58.34 57.63 57.52 57.23 56.66 56.09 54.18 52.56 51.96 51.86 53.15 53.23 52.53 52.96 51.31 50.59 48.31 47.08 48.40 47.01 45.17 44.68 47.79 47.22
62.30 61.31 60.94 60.17 60.33 59.69 59.06 58.48 58.46 58.83 58.41 58.26 57.61 56.42 55.28 52.88 49.47 52.82 57.57 58.13 57.26 56.47 56.85 56.82 56.64 52.49 51.72 49.95 49.14 50.97 52.14 51.61 50.54 49.71 47.48 45.77 44.31 43.39 43.14 44.71 43.90 45.05 46.88
60.93 59.32 59.52 58.50 57.39 57.54 58.43 58.15 58.10 57.81 57.92 57.62 56.77 55.48 53.36 49.10 43.03 44.36 48.92 57.43 57.41 56.82 55.85 55.75 56.01 54.56 50.87 48.08 48.43 48.08 48.83 49.13 49.28 48.33 46.82 44.86 44.06 43.21 44.06 43.53 43.66 43.58 43.47
59.48 58.32 57.54 57.36 56.90 57.31 57.89 57.54 57.20 57.16 57.35 56.46 55.70 54.00 49.93 47.10 41.32 41.78 44.29 57.27 56.86 56.08 55.28 52.86 52.13 52.15 46.39 45.65 46.92 50.20 52.84 50.99 49.52 48.61 47.52 46.10 44.39 44.40 44.40 43.49 43.49 44.10 44.63
59.15 58.29 57.82 57.80 57.21 57.08 56.94 56.48 56.83 56.71 56.14 55.90 55.47 54.24 50.67 43.33 40.31 40.15 42.07 56.18 56.47 55.56 54.86 52.77 50.46 49.12 43.57 41.62 46.93 52.41 52.84 53.97 53.09 50.02 48.34 47.94 47.54 46.86 45.97 45.19 44.78 46.20 46.77
58.51 57.62 57.51 57.15 56.30 56.35 55.80 56.15 56.47 55.81 55.22 54.73 54.27 53.49 51.28 44.22 38.88 38.77 44.62 54.83 54.10 53.65 53.85 47.91 47.26 46.12 38.67 38.76 46.44 49.35 50.05 50.99 50.33 48.05 46.05 44.40 43.26 43.12 44.74 45.34 44.65 44.50 42.90
57.22 56.91 57.07 56.81 56.27 55.56 56.04 55.75 56.13 55.53 54.27 53.07 51.47 50.53 45.89 48.40 37.61 38.13 40.10 50.22 49.85 50.05 51.98 48.72 40.73 41.28 38.00 37.71 43.83 47.04 46.06 46.99 49.41 51.33 47.35 46.06 44.36 45.80 45.54 46.01 46.23 44.46 43.48
56.65 56.28 56.19 56.12 55.76 55.61 55.52 55.59 55.12 53.96 52.97 51.88 50.85 50.67 47.50 44.03 42.51 37.85 37.91 45.20 44.68 48.39 47.24 45.14 45.97 39.13 38.02 37.79 38.03 46.56 44.38 43.93 49.33 50.49 46.68 45.99 44.62 44.07 44.10 45.44 47.69 47.73 44.80
55.36 54.62 54.45 54.83 54.57 54.61 54.77 54.79 54.56 54.44 53.12 52.24 51.32 50.05 49.43 49.25 39.84 38.05 37.51 37.86 39.46 46.81 45.39 44.46 44.66 37.99 37.71 38.67 41.94 39.25 39.20 44.56 48.13 47.27 46.11 44.07 42.71 42.69 43.76 44.87 47.74 48.58 49.41
53.07 53.02 53.41 54.23 54.17 54.30 53.72 53.45 52.43 53.32 52.20 51.57 50.66 49.42 47.64 45.64 44.78 41.10 38.37 37.45 40.49 43.93 45.61 42.30 38.64 38.64 40.74 45.11 41.83 41.25 43.53 47.36 46.24 44.78 44.40 43.88 44.02 44.50 44.53 44.66 46.49 47.45 47.87
52.28 52.06 52.40 51.83 51.66 52.28 51.75 50.55 48.13 49.25 50.81 50.34 49.41 48.05 45.66 41.58 39.30 39.94 41.72 43.00 42.29 44.11 43.72 46.17 43.61 42.70 41.84 42.79 44.58 44.85 46.18 46.55 46.75 45.42 46.03 46.72 46.12 44.98 44.06 44.72 44.08 44.89 45.18
50.29 49.87 49.28 47.18 43.42 40.75 39.63 43.64 41.30 38.12 41.51 43.77 42.60 40.72 41.10 37.99 36.12 35.27 35.99 38.51 39.84 40.40 41.44 45.19 43.90 43.29 42.86 42.65 42.89 43.58 44.25 44.58 45.71 46.47 46.85 45.39 46.08 45.15 44.64 45.39 44.60 44.37 43.35
49.71 48.61 47.48 45.84 43.82 42.13 40.16 37.34 34.47 34.87 34.52 34.05 34.29 37.43 37.49 34.23 34.69 35.21 35.35 35.08 34.49 35.80 43.18 42.08 41.51 41.59 41.07 41.31 41.15 41.11 42.17 42.26 44.33 44.87 46.15 45.28 45.46 45.53 45.05 45.38 44.99 43.71 43.29
50.18 49.78 47.61 46.81 46.49 44.99 43.20 40.76 37.81 36.24 35.36 34.70 34.33 34.37 34.42 33.94 35.23 35.62 36.02 36.19 34.80 38.90 41.48 41.10 40.57 40.29 40.11 40.69 40.95 40.60 40.75 41.72 44.52 43.46 44.52 46.00 45.92 46.71 45.89 45.42 44.79 43.46 42.88
50.57 44.92 49.51 48.68 48.16 47.83 47.55 46.44 44.93 43.57 41.51 39.91 35.19 37.69 33.97 34.52 35.18 36.00 36.36 41.12 41.77 41.21 41.09 40.01 39.67 39.88 39.46 39.69 40.04 40.36 41.10 41.54 42.78 43.56 43.46 45.19 46.07 45.49 45.14 44.64 44.37 43.47 42.52
49.84 49.73 49.81 49.40 48.83 46.99 46.55 45.82 45.21 44.53 43.96 43.87 43.24 39.09 38.12 35.03 34.99 36.72 37.84 41.80 40.61 40.03 40.17 39.77 39.75 39.73 39.48 39.55 40.33 41.10 42.13 41.03 41.02 42.75 43.33 44.06 45.42 45.94 45.25 46.06 44.90 40.67 40.80
47.48 41.62 44.47 46.88 46.61 46.26 46.00 45.16 44.17 43.29 42.04 41.21 41.08 41.89 42.91 42.89 42.11 41.66 41.65 41.02 40.50 39.74 39.63 39.56 39.27 39.04 38.91 38.75 39.68 40.27 40.88 39.88 40.50 41.56 42.92 44.72 44.62 46.56 45.86 45.29 44.41 43.44 42.96
46.36 46.68 41.93 46.46 46.07 45.74 45.17 44.21 43.82 42.96 41.33 39.99 39.67 38.78 30.72 41.99 41.19 41.03 40.59 40.36 39.97 39.73 39.64 39.42 39.25 38.74 38.26 37.74 37.72 38.39 38.03 37.74 38.55 39.77 43.12 43.74 44.12 44.64 46.43 46.22 45.94 43.92 43.10
46.29 46.15 45.66 45.05 45.07 44.71 44.47 44.45 43.96 43.30 42.61 41.96 41.33 39.57 32.89 41.80 41.25 40.88 40.65 40.41 40.63 40.55 40.52 39.75 39.17 38.70 37.72 37.02 36.39 36.19 35.37 35.58 37.29 39.03 41.08 43.68 44.06 43.57 44.84 45.69 46.21 44.43 42.37
46.05 45.38 44.86 44.11 43.74 40.70 43.82 43.83 43.17 42.74 42.18 41.98 41.62 41.00 41.06 40.76 40.54 40.68 40.46 40.83 40.88 40.62 40.55 40.14 39.08 38.43 37.80 36.82 36.34 35.59 33.65 33.87 35.71 39.31 38.45 42.40 43.34 42.18 43.97 44.34 45.24 43.12 40.48
45.19 44.83 44.50 44.42 43.96 43.18 42.62 41.79 41.37 38.56 41.79 41.35 41.15 40.70 40.66 40.69 40.40 40.53 40.80 40.91 40.90 40.73 40.49 39.75 39.15 37.76 36.97 35.35 34.98 34.39 33.83 32.46 34.37 36.43 38.27 41.76 41.92 41.16 42.90 42.75 45.00 42.34 39.54
45.20 44.57 44.13 43.80 43.29 43.05 43.08 42.56 42.06 41.95 41.42 41.15 40.51 40.36 40.47 40.53 40.24 40.26 40.59 40.84 40.88 40.51 40.26 39.88 39.12 37.38 36.33 34.68 33.15 32.43 30.56 29.87 32.33 30.58 36.92 41.74 40.95 40.96 41.61 42.22 44.20 41.77 39.53
45.41 45.04 44.60 44.41 43.96 43.45 42.87 42.23 41.68 41.53 40.86 40.83 40.85 40.44 40.15 39.85 39.95 39.95 40.12 40.07 40.11 40.09 40.20 39.80 39.72 38.08 35.45 34.03 32.23 30.09 29.57 29.79 31.29 30.55 35.15 40.62 39.74 40.74 40.25 41.84 43.05 40.31 37.97
MSLP
1004.61 1005.46 1006.45 1007.69 1009.10 1010.12 1011.34 1012.37 1013.07 1013.93 1014.56 1015.16 1015.84 1016.19 1016.46 1016.50 1016.51 1016.47 1016.45 1016.34 1016.04 1016.21 1016.48 1016.28 1016.32 1016.29 1015.84 1015.46 1015.22 1014.27 1013.88 1013.39 1012.45 1011.35 1011.26 1010.87 1010.65 1010.18 1009.66 1009.28 1008.44 1007.58 1006.38
1005.26 1006.41 1007.46 1008.46 1009.80 1011.04 1012.00 1012.96 1013.84 1014.39 1015.03 1015.66 1016.04 1016.36 1016.55 1016.50 1016.68 1016.69 1016.69 1016.64 1016.65 1016.80 1016.75 1016.66 1016.69 1016.61 1016.66 1016.20 1015.82 1015.00 1014.33 1013.72 1013.30 1012.34 1011.84 1011.36 1011.05 1010.92 1010.41 1009.87 1008.76 1007.84 1006.81
1006.22 1007.28 1008.33 1009.50 1010.50 1011.62 1012.64 1013.56 1014.39 1014.89 1015.28 1015.88 1016.26 1016.56 1016.82 1017.00 1017.04 1017.05 1017.07 1017.06 1017.06 1017.17 1017.06 1017.08 1017.31 1017.30 1017.11 1017.05 1016.43 1015.44 1014.70 1014.44 1013.74 1013.13 1012.22 1011.90 1011.78 1011.46 1010.86 1009.72 1009.05 1008.07 1006.94
1007.10 1008.41 1009.44 1010.67 1011.50 1012.41 1013.31 1014.09 1014.67 1015.28 1015.77 1016.25 1016.67 1017.17 1017.44 1017.52 1017.55 1017.50 1017.47 1017.41 1017.36 1017.42 1017.56 1017.50 1017.49 1017.77 1017.89 1017.44 1016.59 1015.88 1015.32 1014.86 1014.08 1013.56 1012.85 1012.54 1012.47 1011.76 1011.26 1010.46 1008.68 1008.02 1006.97
1008.01 1009.29 1010.52 1011.47 1012.35 1013.18 1013.95 1014.61 1015.24 1015.82 1016.46 1016.97 1017.38 1017.75 1018.31 1018.71 1019.29 1018.98 1018.09 1017.79 1017.80 1017.77 1017.58 1017.48 1017.41 1018.14 1018.08 1018.00 1017.53 1016.66 1015.88 1015.16 1014.66 1013.93 1013.56 1013.28 1012.73 1011.85 1011.32 1010.73 1009.68 1008.40 1006.94
1008.68 1009.88 1011.08 1012.05 1013.13 1013.97 1014.68 1015.33 1016.08 1016.64 1017.08 1017.39 1017.87 1018.34 1018.96 1019.85 1020.22 1019.80 1019.46 1018.30 1018.19 1017.99 1017.86 1017.94 1017.78 1017.79 1018.31 1018.06 1017.48 1016.61 1015.93 1015.43 1015.05 1014.56 1013.99 1013.58 1013.13 1012.64 1011.68 1010.98 1009.87 1008.60 1006.87
1009.15 1010.64 1011.77 1012.76 1013.73 1014.51 1015.32 1016.06 1016.71 1017.22 1017.59 1017.99 1018.54 1019.24 1020.10 1020.88 1021.31 1020.57 1019.90 1018.84 1018.45 1018.50 1018.46 1018.68 1018.50 1018.41 1018.87 1018.32 1017.36 1015.98 1015.25 1014.78 1015.14 1015.03 1014.24 1013.86 1013.36 1012.77 1011.97 1010.87 1009.86 1008.80 1007.42
1009.97 1011.27 1012.32 1013.13 1014.12 1015.11 1015.94 1016.67 1017.33 1017.78 1018.15 1018.53 1019.08 1019.77 1020.67 1021.82 1021.89 1021.20 1020.19 1019.16 1018.79 1018.68 1018.67 1019.06 1019.11 1019.07 1019.50 1019.17 1017.81 1016.32 1015.71 1014.91 1014.83 1014.67 1014.44 1013.85 1013.37 1012.78 1012.19 1011.27 1009.98 1008.65 1007.42
1010.54 1011.72 1012.76 1013.81 1014.81 1015.67 1016.39 1017.03 1017.73 1018.34 1018.73 1019.28 1019.84 1020.43 1021.09 1022.24 1022.43 1021.85 1020.74 1019.23 1019.06 1018.71 1018.66 1019.49 1019.71 1019.71 1019.98 1019.38 1018.35 1017.14 1016.20 1015.30 1014.84 1014.47 1014.38 1013.85 1013.55 1012.86 1012.02 1010.93 1009.62 1008.52 1007.27
1011.42 1012.48 1013.59 1014.66 1015.54 1016.31 1017.09 1017.70 1018.30 1018.81 1019.27 1019.92 1020.49 1021.17 1021.87 1022.30 1022.98 1022.41 1021.73 1020.38 1020.05 1019.48 1019.13 1019.73 1019.72 1020.37 1020.32 1019.68 1019.10 1017.83 1016.87 1016.01 1015.00 1013.99 1014.24 1013.86 1013.54 1012.58 1011.76 1011.13 1010.10 1008.98 1008.06
1012.56 1013.71 1014.88 1015.83 1016.62 1017.40 1017.99 1018.51 1018.92 1019.49 1020.03 1020.43 1020.92 1021.36 1022.07 1022.69 1023.17 1023.02 1022.60 1021.80 1021.37 1019.99 1019.92 1020.15 1020.15 1020.51 1020.08 1019.79 1019.28 1018.48 1017.75 1016.68 1015.12 1014.56 1014.51 1014.12 1013.50 1012.77 1012.04 1011.20 1010.30 1009.30 1008.49
1013.99 1015.08 1016.18 1016.84 1017.41 1018.18 1018.69 1019.20 1019.60 1019.98 1020.24 1020.56 1020.82 1020.95 1021.68 1022.22 1023.02 1023.19 1023.12 1022.92 1022.41 1021.23 1020.77 1020.85 1020.66 1020.35 1019.78 1019.43 1019.13 1018.48 1017.45 1016.64 1015.85 1015.29 1014.86 1014.51 1014.01 1013.41 1012.53 1011.60 1010.50 1009.58 1008.72
1015.28 1016.25 1016.88 1017.60 1018.29 1018.94 1019.35 1019.58 1019.91 1020.19 1020.35 1020.52 1020.72 1021.30 1022.05 1022.90 1023.09 1023.06 1023.17 1022.93 1022.23 1021.78 1021.41 1021.31 1020.71 1020.12 1019.79 1019.16 1018.93 1018.55 1017.62 1016.97 1016.43 1015.89 1015.37 1014.91 1014.75 1014.08 1013.10 1011.98 1010.84 1009.88 1008.95
1016.17 1017.02 1017.86 1018.38 1019.02 1019.45 1019.80 1020.49 1021.43 1021.62 1021.39 1021.53 1021.75 1022.29 1023.00 1023.96 1024.47 1024.20 1023.51 1022.86 1022.28 1021.84 1021.71 1020.79 1020.50 1020.28 1019.85 1019.73 1019.16 1018.93 1018.45 1017.95 1017.00 1016.45 1015.65 1015.13 1014.55 1013.90 1013.28 1012.46 1011.46 1010.28 1009.22
1017.21 1018.08 1018.94 1020.15 1021.23 1022.11 1023.09 1023.56 1024.38 1025.06 1024.27 1024.19 1024.32 1024.86 1024.70 1025.36 1026.12 1026.13 1025.42 1024.64 1024.12 1023.11 1022.03 1021.32 1020.89 1020.61 1020.51 1020.20 1019.97 1019.79 1019.23 1018.70 1017.56 1016.78 1016.00 1015.56 1014.63 1013.89 1013.51 1012.81 1012.03 1011.11 1010.16
1017.75 1018.63 1019.70 1020.61 1021.62 1022.58 1023.73 1025.38 1026.60 1026.37 1026.43 1026.48 1026.36 1026.14 1026.53 1027.07 1026.74 1026.11 1025.54 1024.98 1024.47 1023.40 1022.56 1022.16 1021.88 1021.66 1021.45 1021.17 1020.86 1020.63 1020.14 1019.44 1018.35 1017.55 1016.72 1016.01 1015.22 1014.42 1013.72 1013.13 1012.60 1011.97 1011.00
1018.34 1019.17 1020.05 1020.70 1021.52 1022.44 1023.46 1024.53 1025.77 1027.48 1027.55 1027.43 1027.40 1027.32 1027.13 1026.94 1026.19 1025.62 1025.12 1024.96 1024.38 1023.55 1023.35 1023.14 1022.98 1022.77 1022.66 1022.29 1021.86 1021.49 1020.91 1020.38 1019.22 1018.45 1017.53 1016.42 1015.66 1014.94 1014.14 1013.58 1013.10 1012.60 1011.73
1018.98 1019.51 1019.88 1020.66 1021.41 1022.11 1022.73 1023.50 1024.38 1025.22 1026.19 1027.15 1027.68 1026.84 1027.22 1026.81 1026.28 1025.63 1024.97 1023.86 1024.23 1024.22 1024.16 1024.14 1024.05 1023.79 1023.75 1023.43 1022.91 1022.40 1021.76 1021.14 1020.06 1019.08 1018.17 1017.11 1016.07 1015.36 1014.75 1014.19 1013.70 1013.39 1012.74
1019.37 1019.86 1020.50 1021.11 1021.75 1022.44 1022.95 1023.51 1024.14 1024.80 1025.23 1025.66 1026.30 1026.74 1026.65 1026.84 1026.57 1026.01 1025.59 1025.14 1025.21 1025.16 1024.98 1024.91 1025.07 1024.82 1024.57 1024.27 1023.84 1023.32 1022.65 1021.98 1021.13 1019.94 1018.84 1017.81 1016.80 1015.74 1015.20 1014.80 1014.48 1014.01 1013.60
1020.90 1021.54 1021.84 1022.22 1022.57 1022.99 1023.41 1023.89 1024.45 1025.08 1025.76 1026.30 1026.55 1026.55 1026.29 1025.74 1026.28 1026.20 1026.26 1026.32 1026.31 1026.27 1026.19 1025.73 1025.80 1025.85 1025.43 1025.01 1024.54 1024.07 1023.48 1022.83 1021.97 1020.90 1019.59 1018.43 1017.67 1016.40 1015.68 1015.33 1015.20 1014.74 1014.32
1021.56 1021.91 1022.25 1022.48 1022.98 1023.45 1023.85 1024.27 1024.77 1025.37 1026.04 1026.67 1027.24 1027.54 1027.26 1026.69 1026.91 1027.05 1027.13 1027.15 1027.25 1027.19 1027.15 1026.77 1026.48 1026.57 1026.37 1026.01 1025.55 1025.06 1024.62 1024.05 1023.18 1022.11 1020.51 1019.21 1018.39 1017.18 1016.32 1015.84 1015.58 1015.65 1015.29
1021.84 1022.21 1022.72 1023.28 1023.78 1024.12 1024.55 1024.93 1025.25 1025.56 1026.00 1026.45 1027.13 1027.81 1027.59 1027.46 1027.54 1027.73 1027.77 1027.97 1028.07 1028.02 1027.96 1027.74 1027.40 1027.50 1027.49 1027.18 1026.81 1026.18 1025.87 1025.30 1024.40 1023.17 1021.90 1020.19 1019.15 1018.32 1017.22 1016.50 1016.11 1016.21 1016.09
1022.50 1023.01 1023.63 1024.28 1024.81 1025.12 1025.21 1025.52 1025.85 1026.20 1026.63 1027.07 1027.38 1027.74 1027.99 1028.21 1028.38 1028.32 1028.45 1028.50 1028.68 1028.72 1028.66 1028.46 1028.45 1028.39 1028.55 1028.34 1028.03 1027.48 1027.24 1026.75 1025.85 1024.26 1023.12 1021.17 1020.02 1019.38 1018.13 1017.35 1016.87 1016.99 1017.07
1023.24 1023.62 1023.99 1024.44 1024.99 1025.64 1026.20 1026.66 1027.08 1027.20 1027.21 1027.65 1028.08 1028.37 1028.51 1028.81 1029.02 1029.04 1028.99 1029.01 1029.02 1029.09 1029.20 1029.19 1029.20 1029.37 1029.37 1029.32 1029.07 1028.67 1028.31 1028.05 1026.97 1025.48 1024.06 1021.87 1020.95 1020.32 1019.13 1018.38 1017.74 1018.08 1018.08
1023.72 1024.34 1024.90 1025.34 1025.83 1026.19 1026.40 1026.80 1027.25 1027.64 1027.96 1028.26 1028.57 1028.85 1029.07 1029.30 1029.46 1029.60 1029.69 1029.51 1029.35 1029.40 1029.49 1029.57 1029.72 1029.96 1029.96 1030.12 1030.14 1029.68 1029.16 1028.28 1027.15 1026.43 1024.82 1022.62 1022.08 1021.23 1020.22 1019.32 1018.80 1019.16 1019.13
1024.52 1025.07 1025.59 1025.97 1026.26 1026.57 1026.93 1027.32 1027.81 1028.22 1028.53 1028.83 1029.20 1029.43 1029.55 1029.72 1029.96 1030.07 1030.13 1030.15 1029.81 1029.75 1029.83 1029.94 1029.91 1030.24 1030.69 1030.76 1030.89 1030.46 1029.60 1028.62 1027.59 1026.40 1025.16 1023.64 1022.96 1021.91 1021.38 1020.26 1019.87 1020.29 1020.29
Wind_Speed
21 16 16 18 17 16 15 14 14 13 12 12 9 7 6 7 6 5 5 6 7 8 7 7 9 8 8 9 9 9 10 10 13 13 12 13 15 16 16 14 16 15 13
17 18 18 17 18 16 16 16 14 13 12 11 8 7 7 8 8 7 8 8 9 8 8 9 10 9 10 10 10 11 10 12 12 15 14 12 14 14 16 18 13 14 15
18 18 17 16 17 17 16 15 14 13 12 10 9 9 8 8 8 8 8 8 8 8 8 8 10 10 10 10 11 11 11 11 12 12 12 11 13 12 15 16 14 15 13
19 18 18 18 18 17 16 15 13 12 11 11 10 10 10 10 10 8 8 8 8 8 8 7 7 10 11 12 11 12 11 11 12 11 12 13 12 13 10 11 15 12 14
20 20 19 18 18 17 16 14 13 12 11 11 11 12 11 11 9 10 10 7 7 6 7 9 8 6 8 12 10 12 13 12 11 11 11 11 12 12 12 10 12 13 14
20 21 19 19 17 15 14 14 13 13 12 12 12 12 12 10 14 14 12 7 7 8 9 10 10 8 15 17 16 20 17 11 11 9 10 11 13 12 10 11 12 12 9
22 21 20 18 17 16 15 14 14 13 12 12 12 12 13 12 16 15 15 6 6 6 7 9 10 10 16 16 17 18 13 5 10 9 13 11 12 12 11 14 15 13 12
22 20 18 18 17 16 15 15 13 12 12 11 11 11 11 11 15 16 17 4 5 6 7 9 11 13 15 17 16 15 15 11 13 6 11 13 9 10 9 11 14 13 10
21 20 18 17 17 16 15 14 12 12 11 11 10 10 10 12 16 18 16 7 7 8 7 10 11 13 14 18 15 16 16 14 14 7 14 16 14 13 14 11 10 10 11
20 19 18 17 16 16 14 13 12 11 11 10 11 11 11 11 15 17 17 8 8 8 8 5 19 13 11 15 13 15 16 16 16 13 12 14 15 15 17 13 11 10 8
20 20 18 17 16 15 14 12 11 11 11 10 10 10 11 11 11 11 15 11 9 8 8 8 10 13 13 13 13 13 13 15 14 12 8 11 13 14 12 13 13 9 8
20 19 18 16 13 12 13 12 11 10 9 8 7 8 8 9 11 7 6 6 11 8 9 9 9 13 16 11 10 14 14 12 12 11 10 11 11 13 13 14 14 12 8
20 19 17 16 14 13 12 11 9 6 6 6 7 7 8 9 10 14 3 5 7 7 9 6 12 13 9 9 8 14 12 12 12 11 11 9 9 10 13 12 12 13 9
20 19 16 15 14 12 10 11 12 10 7 7 7 7 8 9 10 11 10 10 12 10 11 6 9 9 9 11 12 13 12 12 11 10 9 10 8 9 11 11 11 12 8
19 17 16 14 15 15 15 11 11 13 14 9 9 9 8 8 8 9 9 10 10 11 12 9 10 10 11 12 12 13 11 12 11 11 10 12 12 10 10 10 10 10 10
16 14 13 13 13 13 13 14 19 18 20 19 19 13 9 6 5 8 10 14 14 17 9 10 10 11 12 12 12 12 12 13 11 12 11 11 12 12 12 10 10 11 11
15 15 13 13 12 12 11 11 12 10 12 12 11 9 7 5 8 10 8 6 10 12 11 11 11 11 12 12 12 12 12 12 13 11 11 12 11 12 13 12 12 12 11
14 13 12 11 11 10 10 10 9 8 9 8 2 6 3 5 8 12 16 8 10 11 10 11 11 11 11 12 12 12 11 10 12 11 11 13 12 11 12 12 12 12 12
12 11 11 10 10 9 9 9 8 8 8 7 8 6 6 5 7 8 12 11 10 10 10 11 11 11 11 11 10 10 12 11 12 12 12 11 13 10 11 11 13 13 12
14 13 11 10 9 9 9 9 9 9 9 8 8 8 9 8 9 10 11 10 10 10 10 11 11 11 12 12 11 11 11 12 12 12 12 12 12 12 11 11 12 13 12
11 10 10 10 9 9 9 9 9 9 9 9 9 7 7 7 9 9 9 10 10 10 10 11 11 11 12 12 13 12 13 13 13 14 13 12 12 13 12 11 10 12 11
11 10 11 10 9 9 9 8 8 8 8 8 8 7 6 8 8 9 9 9 9 9 9 10 10 11 12 12 13 13 14 14 13 13 14 13 12 14 12 12 11 12 12
11 12 11 11 10 9 9 8 8 8 8 8 8 7 8 8 8 8 8 8 8 9 9 10 11 11 12 12 12 13 13 13 14 14 14 13 12 13 12 12 11 13 13
12 12 11 10 10 9 9 9 8 9 8 8 8 7 8 8 7 8 8 8 8 8 9 10 10 14 13 13 12 13 12 12 12 14 20 13 13 14 13 13 12 17 12
11 11 11 10 9 9 8 9 8 8 8 7 7 7 7 7 7 7 7 7 7 8 9 9 9 14 15 18 19 20 18 19 18 17 13 15 16 18 16 13 14 13 15
10 10 9 8 8 8 8 8 8 7 7 7 7 7 7 7 7 7 7 8 7 8 9 9 11 16 17 15 17 17 19 20 19 22 15 14 14 13 14 15 19 13 15
Wind_Direction
139 131 125 110 117 113 111 114 109 109 106 97 97 98 101 87 71 69 74 43 41 33 20 13 16 2 359 346 341 336 328 336 322 332 320 338 338 341 332 329 324 321 317
131 108 112 113 116 114 112 112 113 107 105 106 112 101 89 75 65 60 51 42 35 28 28 19 14 7 351 358 337 344 331 334 334 321 335 334 340 339 335 324 325 325 329
111 112 112 115 115 113 110 110 110 108 103 102 97 86 77 75 74 64 48 44 45 37 24 15 12 7 359 348 337 339 341 338 328 332 325 335 330 332 325 319 326 317 316
110 111 113 117 113 111 112 110 106 102 101 94 87 83 71 54 41 52 48 42 30 35 22 2 24 9 357 348 341 337 342 330 335 329 330 330 327 327 319 321 321 322 317
114 113 113 111 112 110 106 105 98 100 102 102 97 86 74 61 34 5 0 44 34 27 19 10 24 53 27 3 337 332 324 328 327 321 326 320 323 330 334 322 313 312 311
113 112 112 109 103 106 110 106 106 105 102 95 88 82 69 55 4 8 355 5 31 24 18 12 347 29 9 350 342 318 296 287 304 326 318 321 323 322 318 321 314 315 319
114 116 117 118 117 118 113 110 106 103 99 94 87 78 62 39 7 356 345 348 28 23 25 17 359 11 14 348 341 310 344 309 237 294 330 323 314 319 317 321 320 312 316
116 116 118 117 112 110 108 105 107 103 97 90 84 78 70 45 13 359 335 288 20 25 15 29 8 2 14 349 332 347 343 350 350 351 345 330 299 302 322 317 305 308 310
115 115 114 113 113 112 108 107 107 107 99 87 75 67 72 50 19 9 349 357 26 358 22 49 28 14 356 343 341 350 344 353 339 17 3 336 340 316 336 330 331 336 331
114 112 111 110 109 108 107 105 107 107 100 93 84 75 35 60 30 16 2 21 19 346 19 82 66 20 335 324 339 357 350 346 332 346 3 358 344 340 340 341 321 332 333
108 106 105 104 104 105 107 106 101 96 100 95 88 78 79 37 52 31 14 20 1 350 13 6 4 348 323 317 313 355 337 319 349 347 3 349 354 350 344 338 333 329 330
106 106 109 110 108 105 105 104 103 105 101 99 99 85 75 71 37 52 29 29 357 348 9 13 355 325 308 306 319 325 321 342 359 354 347 354 352 348 341 338 335 334 338
109 110 108 106 105 104 104 105 101 94 91 83 76 71 59 38 27 9 278 300 335 347 350 325 288 298 325 2 342 341 357 1 2 355 347 356 348 332 333 341 341 341 347
110 107 106 103 98 83 71 55 42 24 73 57 59 59 60 54 28 15 10 10 2 8 357 21 9 359 23 9 5 8 10 355 351 354 349 345 346 343 349 349 343 346 344
105 105 97 83 81 73 54 55 73 48 40 48 59 45 36 43 26 333 350 2 354 339 324 21 17 18 12 13 12 8 4 357 352 354 356 351 347 348 353 348 350 350 356
116 109 110 110 105 101 96 86 62 71 66 60 50 48 83 61 327 348 336 317 322 337 25 22 19 16 14 11 11 6 4 356 352 355 355 354 349 349 352 356 360 359 356
112 118 114 116 114 109 106 103 99 78 75 77 78 62 53 28 8 351 340 290 299 359 29 21 17 19 12 10 8 9 4 355 348 2 354 349 353 351 354 0 2 2 357
113 112 115 115 117 122 126 128 133 128 117 111 165 93 77 7 5 7 352 40 41 32 31 23 14 16 13 10 6 5 360 358 350 359 353 348 353 354 356 2 3 5 356
115 106 105 102 94 94 97 95 89 80 73 87 125 160 164 235 290 40 22 39 37 32 25 27 17 9 14 12 4 0 358 1 352 355 349 353 350 353 0 7 2 2 358
85 80 107 120 119 111 109 105 97 86 76 63 50 41 19 52 45 42 43 37 34 34 24 23 24 12 6 10 4 2 2 3 358 352 347 350 355 352 2 7 12 0 3
120 115 96 108 106 102 96 92 92 93 89 78 66 42 332 41 50 45 41 38 34 31 26 18 23 17 11 8 4 7 3 4 357 353 341 349 3 347 1 2 15 12 9
121 113 104 104 105 100 97 94 90 87 85 90 99 78 326 54 54 50 45 43 31 33 28 23 22 22 13 10 6 5 3 2 352 354 338 346 5 344 1 1 13 18 6
109 106 98 94 102 121 101 96 93 88 82 74 69 64 61 52 51 45 49 43 44 32 31 28 24 22 18 13 11 7 4 358 341 345 335 345 359 350 358 358 19 17 8
115 119 117 107 95 94 92 89 81 57 73 76 69 62 59 62 52 50 39 48 39 45 31 34 31 25 21 19 12 6 4 352 332 344 331 357 353 360 356 3 24 21 10
103 106 111 114 110 109 104 90 85 80 77 72 70 67 64 56 52 48 38 32 46 37 42 35 30 29 24 22 14 5 353 342 338 337 331 2 355 14 355 6 25 19 16
109 110 112 111 110 105 103 99 93 89 84 79 74 67 58 58 51 45 42 28 29 41 34 33 30 40 26 22 13 358 350 345 342 337 328 11 11 11 0 7 30 22 16